{"data":{"norad_id":65406,"intl_designator":"2025-192C","name":"STARLINK-35036","alt_names":[],"object_type":"PAYLOAD","status":"ACTIVE","operator":null,"country":"US","launch_date":"2025-08-31","launch_site_code":"AFETR","launch_vehicle":null,"mission":null,"orbit_class":"UNKNOWN","rcs_meters":null,"size_class":null,"mass_kg":null,"dimensions":null,"purposes":["comms"],"wikipedia_slug":null,"has_3d_model":false,"image_url":null,"decayed_at":null,"tle_current":{"epoch":"2026-09-20T14:11:04.636896Z","epoch_age_seconds":107055,"freshness":"FRESH","line1":"1 65406U 25192C   26263.59102589  .00025019  00000+0  74904-3 0  9991","line2":"2 65406  53.1605  44.9881 0001101 106.3490 253.7634 15.34403562 59257","mean_motion":15.34403562,"eccentricity":0.0001101,"inclination_deg":53.1605,"raan_deg":44.9881,"arg_perigee_deg":106.349,"mean_anomaly_deg":253.7634,"bstar":0.00074904,"rev_number":5925,"period_min":93.847540220973,"perigee_km":461.93947786811,"apogee_km":463.44582855775,"semimajor_km":6840.8296532129,"source":"CELESTRAK","updated_at":"2026-09-21T09:00:35.602666Z"}}}